QTR8A OTHH-YSSY

Flight info

Callsign QTR8A
Flight time N/A
Altitude 31000
Route BUNDU B415 SIXIV N318 TOLDA P570 KITAL L894 BOLUR/N0505F330 L894 BIBGO DCT SABEK/N0499F350 DCT 10S083E 14S086E 19S090E 24S095E/N0485F370 25S096E 2800S10030E 30S104E 32S109E 34S115E DCT NIPON/N0478F390 DCT VIMUS DCT COBEL DCT LESON DCT TUTNO Y135 TEDUS J15 AD H247 CULIN Y59 RIVET
Aircraft A388/J-SADE2E3FGHIJ3J4J5M1RWXY/LB1D1

Departure

Time 2026-05-08 01:05
Airport Hamad International Airport (OTHH)

Arrival

Time N/A
Airport Sydney Kingsford Smith International Airport (YSSY)
Time Latitude Longitude Altitude Speed Heading
2026-05-08 00:46 25.26596 51.61257 35 ft 0 kts 248°
2026-05-08 00:54 25.26602 51.61274 35 ft 4 kts 248°
2026-05-08 00:54 25.26611 51.61301 35 ft 2 kts 248°
2026-05-08 00:55 25.26621 51.61322 33 ft 4 kts 231°
2026-05-08 00:55 25.26637 51.61335 32 ft 4 kts 195°
2026-05-08 00:55 25.26658 51.61335 33 ft 4 kts 164°
2026-05-08 00:55 25.26682 51.61326 33 ft 4 kts 158°
2026-05-08 00:56 25.26705 51.61316 33 ft 1 kts 158°
2026-05-08 00:58 25.26677 51.61328 34 ft 11 kts 158°
2026-05-08 00:58 25.26598 51.61362 35 ft 13 kts 158°
2026-05-08 00:59 25.26508 51.61402 35 ft 15 kts 158°
2026-05-08 00:59 25.26410 51.61451 35 ft 15 kts 139°
2026-05-08 00:59 25.26403 51.61541 35 ft 12 kts 69°
2026-05-08 00:59 25.26435 51.61622 35 ft 11 kts 66°
2026-05-08 01:00 25.26464 51.61697 35 ft 11 kts 67°
2026-05-08 01:00 25.26500 51.61796 35 ft 16 kts 69°
2026-05-08 01:00 25.26525 51.61916 34 ft 14 kts 114°
2026-05-08 01:00 25.26449 51.61972 34 ft 14 kts 161°
2026-05-08 01:01 25.26350 51.62011 35 ft 16 kts 159°
2026-05-08 01:01 25.26244 51.62062 35 ft 17 kts 157°
2026-05-08 01:01 25.26128 51.62114 35 ft 19 kts 161°
2026-05-08 01:01 25.26000 51.62166 35 ft 20 kts 159°
2026-05-08 01:02 25.25863 51.62226 35 ft 22 kts 158°
2026-05-08 01:02 25.25719 51.62290 35 ft 23 kts 158°
2026-05-08 01:02 25.25580 51.62365 34 ft 16 kts 117°
2026-05-08 01:02 25.25602 51.62469 33 ft 14 kts 63°
2026-05-08 01:03 25.25641 51.62568 31 ft 14 kts 67°
2026-05-08 01:03 25.25699 51.62615 31 ft 9 kts 356°
2026-05-08 01:03 25.25746 51.62593 31 ft 7 kts 331°
2026-05-08 01:03 25.25808 51.62559 31 ft 25 kts 338°
2026-05-08 01:04 25.26187 51.62393 32 ft 90 kts 339°
2026-05-08 01:04 25.26926 51.62068 35 ft 136 kts 339°
2026-05-08 01:04 25.27869 51.61641 237 ft 154 kts 338°
2026-05-08 01:04 25.28897 51.61156 575 ft 163 kts 337°
2026-05-08 01:05 25.29972 51.60721 928 ft 165 kts 347°
2026-05-08 01:05 25.31087 51.60593 1444 ft 157 kts 347°
2026-05-08 01:05 25.32097 51.60163 1740 ft 162 kts 335°
2026-05-08 01:05 25.33122 51.59551 1773 ft 173 kts 327°
2026-05-08 01:06 25.34149 51.58799 1779 ft 181 kts 335°
2026-05-08 01:06 25.35318 51.58249 1854 ft 185 kts 340°
2026-05-08 01:06 25.36546 51.57766 1891 ft 190 kts 341°
2026-05-08 01:06 25.37819 51.57265 1923 ft 197 kts 341°
2026-05-08 01:07 25.39111 51.56732 1990 ft 200 kts 341°
2026-05-08 01:07 25.40432 51.56175 2023 ft 205 kts 341°
2026-05-08 01:07 25.41788 51.55594 2042 ft 217 kts 341°
2026-05-08 01:07 25.43208 51.54983 2189 ft 229 kts 341°
2026-05-08 01:08 25.44816 51.54768 2416 ft 236 kts 12°
2026-05-08 01:08 25.46280 51.55524 2913 ft 237 kts 40°
2026-05-08 01:08 25.47221 51.57035 3266 ft 246 kts 70°
2026-05-08 01:08 25.47364 51.58944 3594 ft 257 kts 98°
2026-05-08 01:09 25.46629 51.60751 4034 ft 264 kts 128°
2026-05-08 01:09 25.45235 51.62072 4459 ft 266 kts 146°
2026-05-08 01:09 25.43699 51.63190 4968 ft 263 kts 144°
2026-05-08 01:09 25.42247 51.64384 5404 ft 264 kts 140°
2026-05-08 01:10 25.40860 51.65721 5839 ft 265 kts 136°
2026-05-08 01:10 25.39539 51.67132 6316 ft 264 kts 135°
2026-05-08 01:10 25.38244 51.68580 6734 ft 264 kts 134°
2026-05-08 01:10 25.37082 51.70157 7145 ft 267 kts 118°
2026-05-08 01:11 25.36431 51.72073 7570 ft 267 kts 101°
2026-05-08 01:11 25.36070 51.74128 7778 ft 279 kts 102°
2026-05-08 01:11 25.35661 51.76263 8024 ft 287 kts 103°
2026-05-08 01:11 25.35240 51.78384 8517 ft 286 kts 103°
2026-05-08 01:12 25.34808 51.80543 8941 ft 288 kts 103°
2026-05-08 01:12 25.34371 51.82726 9323 ft 292 kts 103°
2026-05-08 01:12 25.33936 51.84910 9828 ft 291 kts 104°
2026-05-08 01:12 25.33500 51.87098 10183 ft 296 kts 103°
2026-05-08 01:13 25.33046 51.89371 10290 ft 309 kts 103°
2026-05-08 01:13 25.32575 51.91736 10397 ft 321 kts 103°
2026-05-08 01:13 25.32085 51.94192 10523 ft 333 kts 103°
2026-05-08 01:13 25.31579 51.96725 10678 ft 343 kts 103°
2026-05-08 01:14 25.31064 51.99305 11042 ft 345 kts 103°
2026-05-08 01:14 25.30553 52.01863 11530 ft 345 kts 103°
2026-05-08 01:14 25.30036 52.04451 12000 ft 344 kts 102°
2026-05-08 01:14 25.29504 52.07045 12287 ft 350 kts 105°
2026-05-08 01:15 25.28634 52.09582 12643 ft 353 kts 117°
2026-05-08 01:15 25.27350 52.11882 13093 ft 354 kts 127°